Location: Eagle Observatory
(42.5300°N, 88.2800°W)
Time: 11:07:36
(UTC-05:00)

HST - Visible Passes

Search period start: 24 October 2014 00:00
Search period end: 02 November 2014 23:00
Orbit: 546 x 550 km, 28.5° (Epoch: 23 October)

Date Brightness Start Highest point End Pass type
(mag) Time Alt. Az. Time Alt. Az. Time Alt. Az.
27 Oct 3.3 19:36:00 10° S 19:36:37 10° S 19:37:03 10° SSE visible
28 Oct 3.2 19:27:56 10° SSW 19:29:09 11° S 19:30:11 10° SSE visible
29 Oct 3.2 19:20:13 10° SSW 19:21:41 12° S 19:23:09 10° SSE visible
30 Oct 3.3 19:12:42 10° SSW 19:14:13 12° S 19:15:44 10° SSE visible
31 Oct 3.3 19:05:18 10° SSW 19:06:44 12° S 19:08:10 10° SSE visible
01 Nov 3.4 18:58:06 10° SSW 18:59:15 11° S 19:00:23 10° S visible
02 Nov 3.6 17:51:27 10° SSW 17:51:44 10° S 17:52:02 10° S visible
